www.pogodaiklimat.ru

Погода и климат >> Архив погоды >> Казахстан >> Алматы


АРХИВ ПОГОДЫ в Алматы

Время (UTC), дата Ветер
(напр.,м/с)
 
Видим.   Явления Облачность Т
(С)
Тd
(С)
f
(%)
Тe
(С)
Тes
(С)
Комфортность P
(гПа)
Po
(гПа)
Тmin
(С)
Tmax
(С)
R
(мм)
R24
(мм)
S
(см)
09 18.06 С 2 10 км 3/3 600 м
[Cu med, cong]
+32.9 +11.3 27 +33 +44 жарко 1001.8 912.6
12 18.06 штиль 0 10 км 3/3 600 м
[Cu med, cong Ci fib]
+31.3 +14.7 37 +33 +37 жарко 1002.3 912.7
15 18.06 штиль 0 10 км 10/8 600 м
[Cb cap Ac trans Ci fib]
+26.6 +11.1 38 +28 +28 жарко 1006.3 914.9 +34.0
18 18.06 штиль 0 н/о {гроза, ливн. осадки} 8/4 600 м
[Cb cap Ac trans Ci fib]
+23.9 +12.0 47 +26 +26 жарко 1006.3 914.2 +34.0
21 18.06 штиль 0 н/о 8/0
[Ci fib]
+21.5 +10.4 49 +23 +23 комфорт 1006.6 913.7
00 19.06 штиль 0
{6}
10 км 3/3 1000 м
[Cu hum Ac cast]
+21.7 +10.2 48 +23 +24 комфорт 1006.8 914.0
03 19.06 штиль 0 10 км 3/3 1000 м
[Cu med, cong Ac cast]
+25.9 +11.9 42 +27 +36 жарко 1006.4 914.9
06 19.06 штиль 0 10 км 3/3 1000 м
[Cu med, cong]
+30.1 +13.0 35 +31 +49 жарко 1003.1 913.1 +20.6 0.0
09 19.06 СВ 1 10 км 5/3 1000 м
[Cu med, cong Ac trans Ci fib]
+30.8 +13.4 35 +32 +43 жарко 1000.9 911.3
12 19.06 СВ 1 10 км 8/3 600 м
[Cb cap Ac und Ci sp]
+30.0 +15.2 41 +33 +35 душно 999.7 910.0
15 19.06 штиль 0 10 км 8/6 600 м
[Cb cap Ac und Ci sp]
+26.9 +15.7 50 +30 +30 душно 1000.6 910.0 +31.7
18 19.06 З 2 н/о слабый ливневой дождь 8/6 600 м
[Cb cap Ac und]
+26.1 +14.1 48 +28 +28 жарко 1001.9 910.9 +31.7
21 19.06 штиль 0 н/о {ливн. осадки} 10/8 600 м
[Cb cap Ac As]
+23.0 +13.4 55 +26 +26 жарко 1003.4 911.4
00 20.06 штиль 0
{5}
10 км {ливн. осадки} 9/8 600 м
[Cb cap Ac trans Ci fib]
+22.2 +13.0 56 +25 +25 комфорт 1005.1 912.6
03 20.06 В 1 10 км 6/3 1000 м
[Cb cap Ci fib]
+26.0 +14.2 48 +28 +35 жарко 1003.2 912.1
06 20.06 штиль 0 10 км {ливн. осадки} 10/10 1000 м
[Cb cap]
+24.0 +15.5 59 +27 +27 жарко 1003.9 912.2 +21.5 0.0
09 20.06 СВ 1 10 км {ливн. осадки} 10/4 1000 м
[Cu med, cong Ci fib]
+26.2 +15.8 53 +29 +38 жарко 1002.2 911.2
12 20.06 штиль 0 10 км 10/8 600 м
[Cb cap Ac lent Ci sp]
+26.0 +17.5 59 +30 +31 душно 1002.1 911.3
15 20.06 штиль 0 10 км 10/6 600 м
[Cb cap Ci sp]
+24.1 +15.5 59 +27 +27 жарко 1003.2 911.6 +27.8
18 20.06 штиль 0 н/о 4/0
[Ci sp]
+24.2 +12.9 49 +26 +26 жарко 1002.8 911.1 +27.8 0.0
21 20.06 В 1 н/о ясно +22.8 +12.3 52 +26 +26 жарко 1002.3 910.3
00 21.06 штиль 0
{2}
20 км 3/0
[Ci sp]
+20.1 +11.2 57 +21 +22 комфорт 1003.4 910.4
03 21.06 штиль 0 20 км 1/0
[Ci fib]
+28.2 +15.0 45 +31 +42 душно 1000.8 910.5
06 21.06 штиль 0 10 км 5/1 1000 м
[Cu med, cong Ci]
+30.6 +15.8 41 +33 +54 опасность
солнечного
удара
999.2 909.8 +19.9
09 21.06 штиль 0 10 км 8/3 1000 м
[Cu med, cong Ci ing]
+31.5 +14.9 37 +34 +46 душно 998.0 908.9
12 21.06 штиль 0 10 км 10/3 1000 м
[Cu med, cong Ci sp]
+30.3 +10.1 29 +30 +33 жарко 998.3 908.7
15 21.06 штиль 0 10 км 10/3 1000 м
[Cu med, cong Ac lent Ci sp]
+27.1 +13.8 44 +29 +29 жарко 999.7 909.2 +33.2
18 21.06 штиль 0 н/о 10/0
[Ac As Ci sp]
+25.5 +9.6 37 +26 +26 жарко 1000.5 909.4 +33.2
21 21.06 штиль 0 н/о 10/0
[Ci sp]
+23.5 +11.5 47 +25 +25 комфорт 1000.9 909.2
00 22.06 штиль 0
{3}
10 км 10/0
[Ac cast Cc]
+22.0 +11.9 53 +24 +25 комфорт 1002.0 909.8
03 22.06 штиль 0 10 км 10/0
[Cc]
+27.7 +17.1 52 +32 +41 очень
душно
1000.4 910.1
06 22.06 штиль 0 10 км 10/4 1000 м
[Cu med, cong Ac lent Ci ing]
+30.8 +17.0 44 +35 +42 очень
душно
999.2 909.9 +22.0
09 22.06 ЮВ 1 10 км 10/5 1000 м
[Cu med, cong Ac As]
+31.6 +17.0 42 +35 +38 очень
душно
998.0 909.0
12 22.06 штиль 0 10 км 10/6 600 м
[Cb cap Ac lent Ci fib]
+30.5 +18.7 49 +35 +37 очень
душно
998.4 909.2
15 22.06 штиль 0 10 км 10/0
[Cc]
+26.8 +13.0 42 +28 +28 жарко 1000.6 909.9 +32.8
18 22.06 ЮВ 1 н/о 8/0
[Ci fib]
+24.5 +11.1 43 +26 +26 жарко 1003.2 911.6 +32.8
21 22.06 ЮЗ 1 н/о ясно +22.6 +10.3 46 +24 +24 комфорт 1001.8 909.7
00 23.06 штиль 0
{3}
20 км 3/0
[Ac lent]
+24.7 +11.2 43 +26 +26 жарко 1002.2 910.7
03 23.06 штиль 0 20 км {ливн. осадки} 1/0
[Ac lent]
+28.8 +12.8 37 +30 +41 жарко 999.7 909.6
06 23.06 ЮЗ 1 10 км 8/4 1000 м
[Cb cap Ci ing]
+31.2 +15.0 37 +33 +45 жарко 999.4 910.2 +22.3 0.0
09 23.06 штиль 0 10 км 3/3 1000 м
[Cu med, cong]
+36.3 +13.0 25 +37 +51 опасность
солнечного
удара
995.7 908.0
12 23.06 Ю 3 10 км 8/4 600 м
[Cb cap Ci]
+31.0 +13.7 35 +32 +34 жарко 997.1 907.9
15 23.06 штиль 0 10 км 10/6 600 м
[Cb cap Ac As]
+27.8 +13.7 42 +30 +30 жарко 998.5 908.3 +37.0
18 23.06 В 1 н/о в посл. час ливневой дождь 10/6 600 м
[Cb cap Ac und]
+22.1 +15.7 67 +26 +26 душно 1004.3 912.0 +37.0
21 23.06 ЮЗ 1 н/о 10/6 600 м
[Cb cap Ac As]
+22.2 +13.9 59 +25 +25 комфорт 1005.4 913.0
00 24.06 штиль 0
{8}
10 км слабый ливневой дождь 10/10 600 м
[Cb cap]
+21.9 +11.8 53 +24 +24 комфорт 1008.3 915.5
03 24.06 штиль 0 10 км {ливн. осадки} 10/3 600 м
[Cb cap Ac trans Ci fib]
+24.3 +12.6 48 +26 +30 жарко 1004.4 912.6
06 24.06 штиль 0 10 км 10/6 600 м
[Cb cap Ac trans Ci fib]
+30.6 +12.7 33 +31 +37 жарко 1002.6 912.8 +18.6 2
09 24.06 штиль 0 10 км в посл. час гроза {ливн. осадки} 8/3 600 м
[Cb cap Ac lent Ci fib]
+27.4 +12.5 40 +29 +38 жарко 1003.7 912.8
12 24.06 З 1 10 км слабый ливневой дождь 10/10 600 м
[Cb cap]
+27.8 +11.8 37 +29 +29 жарко 1003.3 912.6
15 24.06 штиль 0 10 км {гроза, ливн. осадки} 10/8 600 м
[Cb cap Ac und Ci sp]
+22.4 +11.8 51 +25 +25 комфорт 1006.3 913.7 +31.6
18 24.06 Ю 1 н/о {гроза, ливн. осадки} 4/3 600 м
[Cb cap Ac As]
+22.6 +9.8 44 +24 +24 комфорт 1007.4 914.8 +31.6 2
21 24.06 штиль 0 н/о 9/4 600 м
[Cb cap Ac trans Ci fib]
+21.3 +10.8 51 +23 +23 комфорт 1007.1 914.1
00 25.06 В 1
{6}
10 км {ливн. осадки} 10/10 600 м
[Cb cap]
+21.9 +12.2 54 +24 +24 комфорт 1007.0 914.2
03 25.06 штиль 0 10 км в посл. час ливневой дождь 10/8 600 м
[Cb cap Ac und]
+22.2 +15.8 67 +26 +27 душно 1007.8 915.2
06 25.06 ЮЗ 1 10 км слабый ливневой дождь 10/10 600 м
[Cb cap]
+20.2 +17.2 83 +24 +24 комфорт 1010.3 916.9 +20.5 0.0

 

Местоположение метеостанции Алматы (Алматинская область, Казахстан): широта 43.23 долгота 76.93 высота над уровнем моря 851 м.

В архиве по умолчанию представлена погода в Алматы за последнюю неделю. Архивные данные за месяц целиком и за предыдущие месяцы, начиная с января 2011 года, Вы можете получить, выбрав интересующий диапазон дат из раскрывающегося списка и нажав кнопку "Ввод!".

Внимание! Время в таблицах - всемирное. Для получения местного времени необходимо прибавить поправку, которая в Алматы равна 6 ч.

Смотрите также архив погоды в соседних городах и на ближайших метеорологических станциях:

Погода в Алматы АМС (Алматинская область, Казахстан) (4 км)
Погода в Каменском плато (Алматинская область, Казахстан) (6 км)
Погода в Медеу (Алматинская область, Казахстан) (12 км)
Погода в Карасайском (Алматинская область, Казахстан) (15 км)
Погода в Шымбулаке (Алматинская область, Казахстан) (16 км)
Погода в Большом Алматинском озере (Алматинская область, Казахстан) (18 км)
Погода в Альмереке (Алматинская область, Казахстан) (21 км)
Погода в Коныролене (Алматинская область, Казахстан) (24 км)
Погода в Рыскулово (Алматинская область, Казахстан) (30 км)
Погода в Илийском (Алматинская область, Казахстан) (33 км)

Пояснения к столбцам:

Ветер - указаны скорость ветра в м/с - средняя за 10 мин, порывы в срок и между сроками (в фигурных скобках) и направление, откуда дует ветер: С - северный, СВ - северо-восточный, В - восточный, ЮВ - юго-восточный, Ю - южный, ЮЗ - юго-западный, З - западный, СЗ - северо-западный.
Видимость - горизонтальная дальность видимости в метрах или километрах. При видимости от 1 до 10 км при отсутствии осадков обычно наблюдается дымка, при ухудшении видимости до 1 км и менее - туман. В сухую погоду видимость может ухудшаться дымом, пылью или мглою.
Явления - указаны атмосферные явления, наблюдавшиеся в срок или в последний час перед сроком; фигурными скобками обозначены явления, наблюдавшиеся между сроками (за 1-3 часа до срока); квадратными скобками обозначены град или гололедные отложения с указанием их диаметра в мм.
Облачность - указаны через наклонную черту общая и нижняя облачность в баллах и высота нижней границы облаков в метрах; квадратными скобками обозначены формы облаков: Ci - перистые, Cs - перисто-слоистые, Cc - перисто-кучевые, Ac - высококучевые, As - высокослоистые, Sc - слоисто-кучевые, Ns - слоисто-дождевые, Cu - кучевые, Cb - кучево-дождевые. Подробнее классификацию облаков см. в Атласе облаков (PDF).
T - Температура воздуха - температура, измеренная на высоте 2 м над землей.
Td - Температура точки росы - температура, при понижении до которой содержащийся в воздухе водяной пар достигнет насыщения.
f - Относительная влажность воздуха - влажноcть воздуха, измеренная на высоте 2 м над землей.
Te - Эффективная температура - температура, которую ощущает одетый по сезону человек в тени. Характеристика душности погоды. При расчете учитывается влияние влажности воздуха и скорости ветра на теплоощущения человека.
Tes - Эффективная температура на солнце - температура, которую ощущает человек, с поправкой на солнечный нагрев. Характеристика знойности погоды. Зависит от высоты солнца над горизонтом, облачности и скорости ветра. Ночью, в пасмурную погоду, а также при ветре 12 м/с и более поправка равна нулю.
P - Атмосферное давление - приведенное к уровню моря атмосферное давление.
Po - Атмосферное давление - измеренное на уровне метеостанции атмосферное давление.
Tmin - Минимальная температура - минимум температуры воздуха на высоте 2 м над землей.
Tmax - Максимальная температура - максимум температуры воздуха на высоте 2 м над землей.
R - Количество осадков - Количество выпавших осадков за период времени, мм. При наведении курсора мыши на число - период времени, за который выпало указанное количество осадков.
R24 - Количество осадков - Количество выпавших осадков за 24 часа, мм.
S - Снежный покров - Высота снежного покрова, см. При наведении курсора мыши на число - состояние снежного покрова и степень покрытия местности в баллах.